Regional Weather Roundup
Issued by NWS

Home | Current Version | Previous Version | Text Only | Print | Product List | Glossary Off
Versions: 1 2 3 4 5 6 7 8 9 10 11 12 13 14 15 16 17 18 19 20 21 22 23 24 25 26 27 28 29 30 31 32 33 34 35 36 37 38 39 40 41 42 43 44 45 46 47 48 49 50

989
ASUS43 KDTX 180601
RWRMI
MICHIGAN HOURLY REGIONAL WEATHER ROUNDUP
NATIONAL WEATHER SERVICE DETROIT/PONTIAC MI
100 AM EST THU JAN 18 2018

NOTE: "FAIR" INDICATES FEW OR NO CLOUDS BELOW 12,000 FEET WITH NO
SIGNIFICANT WEATHER AND/OR OBSTRUCTION TO VISIBILITY.

MIZ047>049-052>055-059>063-066>070-074>076-081>083-180700-
SOUTHEAST LOWER MICHIGAN

CITY           SKY/WX    TMP DP  RH WIND       PRES   REMARKS
ADRIAN         FAIR      13   6  74 W12G22    30.18F WCI  -1
6HR MIN TEMP:  13; 6HR MAX TEMP:  18;

ALMA           FAIR      24  17  76 W17G25    30.03S WCI  10
6HR MIN TEMP:  24; 6HR MAX TEMP:  26;

ANN ARBOR      FAIR      14   6  70 SW12      30.13F WCI   0
BAD AXE        FAIR      20  14  77 W17G24    29.99F WCI   5
6HR MIN TEMP:  20; 6HR MAX TEMP:  23;

CARO           FAIR      19  13  75 SW15G21   30.01R WCI   5
DETROIT CITY   FAIR      17   7  64 SW16G24   30.11F WCI   2
6HR MIN TEMP:  17; 6HR MAX TEMP:  20;

DETROIT        MOCLDY    16   8  71 SW21G26   30.15F WCI  -1
6HR MIN TEMP:  16; 6HR MAX TEMP:  20;

FLINT          FAIR      18   8  65 SW17      30.06F WCI   3
6HR MIN TEMP:  18; 6HR MAX TEMP:  23;

GROSSE ILE     FAIR      17   9  69 W20G28    30.15F WCI   1
6HR MIN TEMP:  17; 6HR MAX TEMP:  19;

HILLSDALE      FAIR      16   7  67 W14G23    30.13F WCI   1
HOWELL         FAIR      17  10  74 SW16G24   30.08F WCI   1
6HR MIN TEMP:  17; 6HR MAX TEMP:  23;


CITY           SKY/WX    TMP DP  RH WIND       PRES   REMARKS
JACKSON        FAIR      15   7  70 SW21G30   30.12F WCI  -2
6HR MIN TEMP:  15; 6HR MAX TEMP:  19;

LAMBERTVILLE   FAIR      15   7  69 SW15G24   30.19F WCI   0
6HR MIN TEMP:  15; 6HR MAX TEMP:  18;

LANSING        MOCLDY    18  11  74 SW22G32   30.08F WCI   1
6HR MIN TEMP:  18; 6HR MAX TEMP:  22;

LAPEER         FAIR      19  10  66 SW18      30.03F WCI   4
6HR MIN TEMP:  19; 6HR MAX TEMP:  24;

MASON          FAIR      18   8  64 SW12G22   30.10F WCI   5
6HR MIN TEMP:  17; 6HR MAX TEMP:  23;

MONROE         FAIR      16   6  65 SW18G30   30.16F WCI   0
6HR MIN TEMP:  15; 6HR MAX TEMP:  19;

MT. CLEMENS    MOCLDY   N/A N/A N/A SW13G25     N/A
PONTIAC        FAIR      18   8  65 SW18G26   30.06F WCI   2
6HR MIN TEMP:  18; 6HR MAX TEMP:  23;

PORT HOPE        N/A     21  14  74 SW9G18    29.97R WCI  11
6HR MIN TEMP:  21; 6HR MAX TEMP:  24;

PORT HURON     FAIR      18   7  62 SW8       30.06F WCI   7
TRI CITIES     FAIR      22  16  78 SW17      30.00S WCI   8
6HR MIN TEMP:  22; 6HR MAX TEMP:  25;

MIDLAND        FAIR      25  17  72 SW14G21   29.99F WCI  13
6HR MIN TEMP:  25; 6HR MAX TEMP:  27;

TROY           FAIR      19   8  60 SW13G18   30.11F WCI   7
SAGINAW HB     FAIR      21  14  73 SW17G23   30.02S WCI   7
$$
MIZ043>046-050>051-056>058-064>065-071>073-077>080-180700-
SOUTHWEST LOWER MICHIGAN

CITY           SKY/WX    TMP DP  RH WIND       PRES   REMARKS
BATTLE CREEK   FAIR      15   8  73 SW18      30.14F WCI  -2
6HR MIN TEMP:  15; 6HR MAX TEMP:  20;

BENTON HARBOR  FAIR      21  14  74 SW21G30   30.20F WCI   5
6HR MIN TEMP:  20; 6HR MAX TEMP:  21;

BIG RAPIDS     FAIR      22  15  74 W20       30.00F WCI   7
6HR MIN TEMP:  22; 6HR MAX TEMP:  24;

COLDWATER      FAIR      14   8  78 SW17G23   30.17F WCI  -3
6HR MIN TEMP:  14; 6HR MAX TEMP:  17;

FREMONT        FAIR      23  13  65 SW16G23   30.05F WCI  10
6HR MIN TEMP:  23; 6HR MAX TEMP:  25;

HOLLAND        FAIR      25  17  72 SW22G32   30.12F WCI  10
6HR MIN TEMP:  24; 6HR MAX TEMP:  26;

GRAND RAPIDS   FAIR      23  16  74 SW25G35   30.09F WCI   7
6HR MIN TEMP:  22; 6HR MAX TEMP:  24;

IONIA          FAIR      20  15  81 SW15      30.06F WCI   6
6HR MIN TEMP:  20; 6HR MAX TEMP:  24;

KALAMAZOO      FAIR      16   8  71 SW16      30.16F WCI   1
6HR MIN TEMP:  16; 6HR MAX TEMP:  20;

LUDINGTON      FAIR      26  18  71 W17G25    30.03F WCI  13
6HR MIN TEMP:  25; 6HR MAX TEMP:  26;

MARSHALL       FAIR      15   8  73 SW13G20   30.14F WCI   0
6HR MIN TEMP:  14; 6HR MAX TEMP:  20;

MOUNT PLEASANT FAIR      25  17  69 W16       29.99F WCI  12
6HR MIN TEMP:  25; 6HR MAX TEMP:  26;

MUSKEGON       FAIR      26  16  65 SW23G29   30.10F WCI  11
6HR MIN TEMP:  26; 6HR MAX TEMP:  28;

SOUTH HAVEN    FAIR      24  17  74 SW13G29   30.18S WCI  13
$$
MIZ016>042-180700-
NORTHERN LOWER MICHIGAN

CITY           SKY/WX    TMP DP  RH WIND       PRES   REMARKS
ALPENA         FAIR      21  13  71 SW8       29.89F WCI  11
6HR MIN TEMP:  21; 6HR MAX TEMP:  24;

BEAVER ISLAND  FAIR      28  17  63 SW18G25   29.87F WCI  15
6HR MIN TEMP:  28; 6HR MAX TEMP:  29;

BELLAIRE       FAIR      27  19  73 SW12      29.93F WCI  17
6HR MIN TEMP:  24; 6HR MAX TEMP:  27;

CADILLAC       FAIR      20  15  81 W15G22    29.92F WCI   7
CHARLEVOIX     FAIR      28  19  67 SW20G30   29.92S WCI  15
6HR MIN TEMP:  26; 6HR MAX TEMP:  29;

FRANKFORT      FAIR      28  18  64 SW10G23   29.98F WCI  19
GAYLORD        FAIR      20  16  84 SW13G18   29.86S WCI   7
6HR MIN TEMP:  20; 6HR MAX TEMP:  21; 6HR PCP: TRACE;

GRAYLING       FAIR      22  14  72 W10G18    29.90S WCI  11
6HR MIN TEMP:  20; 6HR MAX TEMP:  22;

HARBOR SPRINGS FAIR      28  19  69 W16G28    29.87F WCI  17
HOUGHTON LAKE  FAIR      20  14  77 W12G22    29.92F WCI   8
6HR MIN TEMP:  20; 6HR MAX TEMP:  22;

MANISTEE       FAIR      26  18  71 SW15      30.00F WCI  14
OSCODA         FAIR      18  10  70 SW8       29.95S WCI   7
6HR MIN TEMP:  17; 6HR MAX TEMP:  25;

PELLSTON       FAIR      28  17  63 W16G25    29.87F WCI  16
6HR MIN TEMP:  26; 6HR MAX TEMP:  29;

ROGERS CITY    FAIR      24  16  72 SW13      29.87F WCI  12
TRAVERSE CITY  FAIR      27  17  66 SW12G17   29.93F WCI  17
6HR MIN TEMP:  25; 6HR MAX TEMP:  27;

$$
MIZ007>008-015-180700-
EASTERN UPPER MICHIGAN

CITY           SKY/WX    TMP DP  RH WIND       PRES   REMARKS
KINROSS        FAIR      23  15  71 W8        29.82S WCI  14
6HR MIN TEMP:  23; 6HR MAX TEMP:  25;

MACKINAC ISLAN FAIR      27  17  68 W13G26    29.84F WCI  16
6HR MIN TEMP:  27; 6HR MAX TEMP:  28;

NEWBERRY       FAIR      17   9  69 SW12      29.82S WCI   5
6HR MIN TEMP:  17; 6HR MAX TEMP:  20;

S. S. MARIE    FAIR      23  12  62 SW10G18   29.81S WCI  12
6HR MIN TEMP:  22; 6HR MAX TEMP:  25;

MUNISING         N/A     17   9  70 SW9       29.83F WCI   6
6HR MIN TEMP:  17; 6HR MAX TEMP:  23;

$$
MIZ004>006-011>014-085-180700-
CENTRAL UPPER MICHIGAN

CITY           SKY/WX    TMP DP  RH WIND       PRES   REMARKS
MANISTIQUE     FAIR      20  10  65 SW8       29.86F WCI  11
6HR MIN TEMP:  20; 6HR MAX TEMP:  22;

ESCANABA       FAIR      11   6  81 SW5       29.89F WCI   3
6HR MIN TEMP:  11; 6HR MAX TEMP:  19;

MENOMINEE      FAIR      20  10  65 SW7       29.94F WCI  11
6HR MIN TEMP:  20; 6HR MAX TEMP:  23;

SAWYER-GWINN   FAIR      19  10  68 W6        29.81F WCI  11
6HR MIN TEMP:  19; 6HR MAX TEMP:  25;

$$
MIZ001>003-009>011-084-180700-
WESTERN UPPER MICHIGAN

CITY           SKY/WX    TMP DP  RH WIND       PRES   REMARKS
IRON MOUNTAIN  FAIR      22  12  65 W10       29.83F WCI  11
6HR MIN TEMP:  22; 6HR MAX TEMP:  26;

HOUGHTON       FAIR      25  15  66 W16       29.77S WCI  12
6HR MIN TEMP:  25; 6HR MAX TEMP:  30;

COPPER HARBOR    N/A     30  20  66 NW9G20    29.78F WCI  22
6HR MIN TEMP:  30; 6HR MAX TEMP:  31;

IRONWOOD       FAIR      21  14  74 SW9       29.87R WCI  11
6HR MIN TEMP:  21; 6HR MAX TEMP:  24;

$$

ABBREVIATIONS USED IN REMARKS
   TC - TEMPERATURE IN CELSIUS
  WCI - WIND CHILL INDEX
   HX - HEAT INDEX
  VSB - VISIBILITY





USA.gov is the U.S. government's official web portal to all federal, state and local government web resources and services.